Terminal Aerodrome Forecast
Issued by NWS Knoxville/Tri Cities, TN

Home | Current Version | Previous Version | Text Only | Print | Product List | Glossary On
Versions: 1 2 3 4 5 6 7 8 9 10 11 12 13 14 15 16 17 18 19 20 21 22 23 24 25 26 27 28 29 30 31
000
FTUS44 KMRX 191720
TAFTRI
TAF
KTRI 191720Z 1918/2018 03006KT P6SM BKN250
     FM200800 04003KT P6SM BKN100
     FM201000 05003KT 6SM -RA OVC050
     FM201400 05005KT P6SM OVC035=

USA.gov is the U.S. government's official web portal to all federal, state and local government web resources and services.